WEN3576 CYWG-CYQT

Flight info

Callsign WEN3576
Flight time 1h 14m
Altitude 25000
Route RORMA DCT AXOMA DCT SIDPO DCT DEGVA DCT TIGAG TIGAG3
Aircraft DH8D/M-SDE2E3FGRY/H

Departure

Time 2026-05-07 01:48
Airport Winnipeg / James Armstrong Richardson International Airport (CYWG)

Arrival

Time 2026-05-07 03:03
Airport Thunder Bay International Airport (CYQT)
Time Latitude Longitude Altitude Speed Heading
2026-05-07 01:26 49.90533 -97.22733 769 ft 0 kts 23°
2026-05-07 01:39 49.90534 -97.22731 769 ft 0 kts 42°
2026-05-07 01:39 49.90535 -97.22725 769 ft 0 kts 96°
2026-05-07 01:39 49.90533 -97.22721 769 ft 0 kts 124°
2026-05-07 01:40 49.90533 -97.22720 769 ft 2 kts 124°
2026-05-07 01:40 49.90505 -97.22709 769 ft 4 kts 215°
2026-05-07 01:40 49.90480 -97.22778 769 ft 11 kts 253°
2026-05-07 01:41 49.90447 -97.22884 770 ft 10 kts 214°
2026-05-07 01:41 49.90379 -97.22926 770 ft 10 kts 199°
2026-05-07 01:41 49.90308 -97.22963 770 ft 12 kts 198°
2026-05-07 01:41 49.90227 -97.23006 770 ft 12 kts 200°
2026-05-07 01:42 49.90175 -97.23100 770 ft 11 kts 257°
2026-05-07 01:42 49.90128 -97.23183 770 ft 10 kts 175°
2026-05-07 01:42 49.90068 -97.23121 770 ft 10 kts 138°
2026-05-07 01:42 49.90008 -97.23038 769 ft 11 kts 138°
2026-05-07 01:43 49.89948 -97.22955 768 ft 12 kts 140°
2026-05-07 01:43 49.89877 -97.22848 768 ft 13 kts 129°
2026-05-07 01:43 49.89819 -97.22741 767 ft 13 kts 130°
2026-05-07 01:43 49.89759 -97.22629 766 ft 13 kts 129°
2026-05-07 01:44 49.89697 -97.22535 766 ft 11 kts 166°
2026-05-07 01:44 49.89635 -97.22601 766 ft 15 kts 230°
2026-05-07 01:44 49.89558 -97.22738 766 ft 16 kts 229°
2026-05-07 01:44 49.89487 -97.22872 767 ft 15 kts 244°
2026-05-07 01:45 49.89489 -97.23038 767 ft 15 kts 276°
2026-05-07 01:45 49.89502 -97.23202 768 ft 15 kts 276°
2026-05-07 01:45 49.89515 -97.23373 769 ft 15 kts 278°
2026-05-07 01:45 49.89529 -97.23536 770 ft 14 kts 277°
2026-05-07 01:46 49.89540 -97.23694 771 ft 15 kts 276°
2026-05-07 01:46 49.89552 -97.23852 772 ft 14 kts 277°
2026-05-07 01:46 49.89563 -97.23997 772 ft 12 kts 277°
2026-05-07 01:46 49.89570 -97.24083 773 ft 8 kts 278°
2026-05-07 01:47 49.89608 -97.24163 773 ft 10 kts 351°
2026-05-07 01:47 49.89615 -97.24163 773 ft 0 kts
2026-05-07 01:47 49.89703 -97.24140 773 ft 46 kts
2026-05-07 01:47 49.90307 -97.24004 776 ft 124 kts
2026-05-07 01:48 49.91297 -97.23767 896 ft 156 kts 11°
2026-05-07 01:48 49.92451 -97.23508 1253 ft 179 kts 10°
2026-05-07 01:48 49.93743 -97.23242 1682 ft 198 kts 10°
2026-05-07 01:48 49.95146 -97.22887 2063 ft 210 kts 10°
2026-05-07 01:49 49.96626 -97.22513 2471 ft 221 kts
2026-05-07 01:49 49.98172 -97.22135 2877 ft 229 kts
2026-05-07 01:49 49.99763 -97.21761 3277 ft 234 kts
2026-05-07 01:49 50.01389 -97.21382 3677 ft 238 kts
2026-05-07 01:50 50.03014 -97.21004 4060 ft 234 kts
2026-05-07 01:50 50.04605 -97.20635 4436 ft 229 kts
2026-05-07 01:50 50.06167 -97.20272 4824 ft 225 kts
2026-05-07 01:50 50.07697 -97.19915 5206 ft 220 kts
2026-05-07 01:51 50.09190 -97.19531 5586 ft 217 kts 11°
2026-05-07 01:51 50.10437 -97.18274 5934 ft 222 kts 51°
2026-05-07 01:51 50.10780 -97.15943 6309 ft 232 kts 96°
2026-05-07 01:51 50.10214 -97.13555 6736 ft 239 kts 114°
2026-05-07 01:52 50.09449 -97.11226 7155 ft 248 kts 116°
2026-05-07 01:52 50.08605 -97.08838 7561 ft 258 kts 117°
2026-05-07 01:52 50.07697 -97.06385 7965 ft 265 kts 118°
2026-05-07 01:52 50.06748 -97.03898 8353 ft 270 kts 119°
2026-05-07 01:53 50.05767 -97.01383 8762 ft 275 kts 120°
2026-05-07 01:53 50.04762 -96.98846 9154 ft 279 kts 120°
2026-05-07 01:53 50.03732 -96.96274 9555 ft 283 kts 120°
2026-05-07 01:53 50.02684 -96.93677 9965 ft 286 kts 120°
2026-05-07 01:54 50.01622 -96.91063 10367 ft 288 kts 120°
2026-05-07 01:54 50.00547 -96.88428 10752 ft 291 kts 120°
2026-05-07 01:54 49.99458 -96.85770 11141 ft 293 kts 121°
2026-05-07 01:54 49.98360 -96.83098 11542 ft 295 kts 121°
2026-05-07 01:55 49.97255 -96.80416 11943 ft 297 kts 121°
2026-05-07 01:55 49.96141 -96.77714 12330 ft 299 kts 121°
2026-05-07 01:55 49.95021 -96.75005 12709 ft 300 kts 120°
2026-05-07 01:55 49.94067 -96.72152 13070 ft 297 kts 102°
2026-05-07 01:56 49.93864 -96.69018 13474 ft 292 kts 86°
2026-05-07 01:56 49.93839 -96.65871 13852 ft 293 kts 86°
2026-05-07 01:56 49.93817 -96.62706 14240 ft 295 kts 86°
2026-05-07 01:56 49.93795 -96.59530 14631 ft 296 kts 86°
2026-05-07 01:57 49.93771 -96.56344 15022 ft 297 kts 86°
2026-05-07 01:57 49.93745 -96.53139 15418 ft 299 kts 86°
2026-05-07 01:57 49.93717 -96.49914 15804 ft 300 kts 86°
2026-05-07 01:57 49.93688 -96.46680 16203 ft 301 kts 86°
2026-05-07 01:58 49.93657 -96.43436 16638 ft 302 kts 87°
2026-05-07 01:58 49.93624 -96.40188 17073 ft 303 kts 87°
2026-05-07 01:58 49.93591 -96.36934 17511 ft 303 kts 87°
2026-05-07 01:58 49.93563 -96.33673 17942 ft 303 kts 88°
2026-05-07 01:59 49.93536 -96.30413 18345 ft 304 kts 88°
2026-05-07 01:59 49.93507 -96.27114 18674 ft 307 kts 88°
2026-05-07 01:59 49.93477 -96.23825 18984 ft 308 kts 88°
2026-05-07 01:59 49.93446 -96.20494 19295 ft 311 kts 88°
2026-05-07 02:00 49.93414 -96.17137 19605 ft 313 kts 88°
2026-05-07 02:00 49.93380 -96.13760 19921 ft 315 kts 88°
2026-05-07 02:00 49.93345 -96.10371 20231 ft 315 kts 88°
2026-05-07 02:00 49.93309 -96.06981 20546 ft 315 kts 88°
2026-05-07 02:01 49.93272 -96.03593 20849 ft 314 kts 88°
2026-05-07 02:01 49.93234 -96.00223 21156 ft 313 kts 88°
2026-05-07 02:01 49.93195 -95.96856 21444 ft 313 kts 88°
2026-05-07 02:01 49.93155 -95.93487 21702 ft 313 kts 88°
2026-05-07 02:02 49.93114 -95.90120 21954 ft 313 kts 88°
2026-05-07 02:02 49.93073 -95.86753 22210 ft 313 kts 88°
2026-05-07 02:02 49.93030 -95.83393 22465 ft 312 kts 88°
2026-05-07 02:02 49.92986 -95.80047 22722 ft 311 kts 88°
2026-05-07 02:03 49.92942 -95.76721 22983 ft 309 kts 89°
2026-05-07 02:03 49.92897 -95.73400 23233 ft 307 kts 89°
2026-05-07 02:03 49.92851 -95.70100 23479 ft 306 kts 88°
2026-05-07 02:03 49.92804 -95.66810 23689 ft 305 kts 88°
2026-05-07 02:04 49.92757 -95.63526 23898 ft 305 kts 88°
2026-05-07 02:04 49.92709 -95.60252 24107 ft 304 kts 88°
2026-05-07 02:04 49.92660 -95.56992 24314 ft 303 kts 88°
2026-05-07 02:04 49.92609 -95.53732 24520 ft 302 kts 88°
2026-05-07 02:05 49.92559 -95.50487 24723 ft 301 kts 88°
2026-05-07 02:05 49.92507 -95.47245 24901 ft 302 kts 88°
2026-05-07 02:05 49.92455 -95.43975 24953 ft 306 kts 88°
2026-05-07 02:05 49.92401 -95.40653 24962 ft 312 kts 88°
2026-05-07 02:06 49.92344 -95.37272 24969 ft 317 kts 89°
2026-05-07 02:06 49.92285 -95.33819 24969 ft 323 kts 89°
2026-05-07 02:06 49.92224 -95.30310 24965 ft 327 kts 89°
2026-05-07 02:06 49.92160 -95.26760 24968 ft 332 kts 89°
2026-05-07 02:07 49.92098 -95.23344 24965 ft 334 kts 89°
2026-05-07 02:07 49.91963 -95.16074 24965 ft 340 kts 89°
2026-05-07 02:07 49.91892 -95.12405 24966 ft 343 kts 89°
2026-05-07 02:08 49.91820 -95.08702 24960 ft 345 kts 89°
2026-05-07 02:08 49.91746 -95.04977 24962 ft 347 kts 89°
2026-05-07 02:08 49.91671 -95.01228 24962 ft 349 kts 89°
2026-05-07 02:08 49.91594 -94.97467 24960 ft 351 kts 89°
2026-05-07 02:09 49.91509 -94.93689 24956 ft 352 kts 91°
2026-05-07 02:09 49.91018 -94.89972 24961 ft 355 kts 108°
2026-05-07 02:09 49.90088 -94.86425 24947 ft 357 kts 111°
2026-05-07 02:09 49.89118 -94.82848 24943 ft 357 kts 111°
2026-05-07 02:10 49.88155 -94.79301 24944 ft 357 kts 111°
2026-05-07 02:10 49.87193 -94.75757 24953 ft 357 kts 111°
2026-05-07 02:10 49.86235 -94.72221 24952 ft 358 kts 111°
2026-05-07 02:10 49.85274 -94.68675 24952 ft 358 kts 111°
2026-05-07 02:11 49.84312 -94.65124 24950 ft 359 kts 111°
2026-05-07 02:11 49.83349 -94.61576 24954 ft 359 kts 111°
2026-05-07 02:11 49.82382 -94.58014 24952 ft 359 kts 111°
2026-05-07 02:11 49.81417 -94.54457 24958 ft 359 kts 111°
2026-05-07 02:12 49.80448 -94.50894 24952 ft 360 kts 111°
2026-05-07 02:12 49.79479 -94.47337 24954 ft 360 kts 111°
2026-05-07 02:12 49.78506 -94.43769 24954 ft 360 kts 111°
2026-05-07 02:12 49.77534 -94.40208 24949 ft 360 kts 111°
2026-05-07 02:13 49.76559 -94.36641 24951 ft 360 kts 111°
2026-05-07 02:13 49.75580 -94.33067 24949 ft 360 kts 112°
2026-05-07 02:13 49.74609 -94.29523 24947 ft 358 kts 111°
2026-05-07 02:13 49.73648 -94.26021 24948 ft 358 kts 111°
2026-05-07 02:14 49.72676 -94.22487 24951 ft 358 kts 111°
2026-05-07 02:14 49.71703 -94.18955 24953 ft 359 kts 111°
2026-05-07 02:14 49.70719 -94.15386 24948 ft 359 kts 111°
2026-05-07 02:14 49.69738 -94.11833 24947 ft 359 kts 111°
2026-05-07 02:15 49.68756 -94.08286 24945 ft 359 kts 111°
2026-05-07 02:15 49.67774 -94.04742 24944 ft 360 kts 112°
2026-05-07 02:15 49.66790 -94.01195 24945 ft 360 kts 112°
2026-05-07 02:15 49.65804 -93.97648 24944 ft 360 kts 112°
2026-05-07 02:16 49.64818 -93.94106 24945 ft 361 kts 112°
2026-05-07 02:16 49.63831 -93.90562 24939 ft 361 kts 111°
2026-05-07 02:16 49.62839 -93.87011 24944 ft 360 kts 111°
2026-05-07 02:16 49.61849 -93.83468 24939 ft 361 kts 111°
2026-05-07 02:17 49.60856 -93.79924 24943 ft 361 kts 111°
2026-05-07 02:17 49.59864 -93.76385 24942 ft 361 kts 111°
2026-05-07 02:17 49.58870 -93.72844 24941 ft 361 kts 111°
2026-05-07 02:17 49.57874 -93.69303 24939 ft 361 kts 111°
2026-05-07 02:18 49.56878 -93.65768 24940 ft 361 kts 111°
2026-05-07 02:18 49.55880 -93.62227 24937 ft 361 kts 111°
2026-05-07 02:18 49.54882 -93.58695 24935 ft 361 kts 111°
2026-05-07 02:18 49.53882 -93.55160 24935 ft 361 kts 111°
2026-05-07 02:19 49.52879 -93.51621 24935 ft 362 kts 111°
2026-05-07 02:19 49.51875 -93.48082 24934 ft 362 kts 111°
2026-05-07 02:19 49.50867 -93.44534 24936 ft 362 kts 111°
2026-05-07 02:19 49.49862 -93.41004 24936 ft 362 kts 111°
2026-05-07 02:20 49.48852 -93.37460 24934 ft 362 kts 111°
2026-05-07 02:20 49.47843 -93.33925 24930 ft 362 kts 112°
2026-05-07 02:20 49.46843 -93.30425 24928 ft 360 kts 112°
2026-05-07 02:20 49.45839 -93.26920 24924 ft 360 kts 112°
2026-05-07 02:21 49.44832 -93.23406 24926 ft 360 kts 112°
2026-05-07 02:21 49.43819 -93.19878 24926 ft 360 kts 112°
2026-05-07 02:21 49.42809 -93.16368 24927 ft 360 kts 112°
2026-05-07 02:21 49.41797 -93.12853 24926 ft 361 kts 112°
2026-05-07 02:22 49.40782 -93.09332 24926 ft 361 kts 112°
2026-05-07 02:22 49.39766 -93.05815 24927 ft 361 kts 112°
2026-05-07 02:22 49.38751 -93.02303 24545 ft 360 kts 112°
2026-05-07 02:22 49.37749 -92.98826 24017 ft 355 kts 112°
2026-05-07 02:23 49.36759 -92.95397 23488 ft 350 kts 112°
2026-05-07 02:23 49.35780 -92.92019 22950 ft 346 kts 112°
2026-05-07 02:23 49.34807 -92.88662 22378 ft 344 kts 112°
2026-05-07 02:23 49.33840 -92.85339 21805 ft 341 kts 112°
2026-05-07 02:24 49.32880 -92.82041 21236 ft 339 kts 112°
2026-05-07 02:24 49.31923 -92.78762 20666 ft 337 kts 112°
2026-05-07 02:24 49.30972 -92.75506 20098 ft 335 kts 112°
2026-05-07 02:24 49.30011 -92.72225 19521 ft 333 kts 112°
2026-05-07 02:25 49.29069 -92.69012 18954 ft 331 kts 112°
2026-05-07 02:25 49.28132 -92.65820 18397 ft 329 kts 112°
2026-05-07 02:25 49.27197 -92.62640 17841 ft 328 kts 112°
2026-05-07 02:25 49.26268 -92.59482 17287 ft 326 kts 112°
2026-05-07 02:26 49.25350 -92.56368 16961 ft 316 kts 112°
2026-05-07 02:26 49.24442 -92.53299 16805 ft 318 kts 113°
2026-05-07 02:26 49.23523 -92.50204 16674 ft 322 kts 113°
2026-05-07 02:26 49.22597 -92.47087 16555 ft 322 kts 113°
2026-05-07 02:27 49.21676 -92.43985 16441 ft 320 kts 113°
2026-05-07 02:27 49.20762 -92.40905 16330 ft 318 kts 113°
2026-05-07 02:27 49.19849 -92.37833 16220 ft 317 kts 113°
2026-05-07 02:27 49.18941 -92.34785 16110 ft 315 kts 114°
2026-05-07 02:28 49.18039 -92.31755 16003 ft 311 kts 114°
2026-05-07 02:28 49.17134 -92.28721 15895 ft 310 kts 114°
2026-05-07 02:28 49.16242 -92.25732 15787 ft 309 kts 114°
2026-05-07 02:28 49.15350 -92.22749 15679 ft 309 kts 114°
2026-05-07 02:29 49.14461 -92.19780 15573 ft 308 kts 114°
2026-05-07 02:29 49.13571 -92.16810 15465 ft 307 kts 114°
2026-05-07 02:29 49.12684 -92.13855 15356 ft 307 kts 114°
2026-05-07 02:29 49.11799 -92.10908 15246 ft 306 kts 114°
2026-05-07 02:30 49.10916 -92.07970 15143 ft 304 kts 114°
2026-05-07 02:30 49.10036 -92.05043 15032 ft 304 kts 114°
2026-05-07 02:30 49.09155 -92.02126 14924 ft 303 kts 114°
2026-05-07 02:30 49.08274 -91.99208 14817 ft 303 kts 114°
2026-05-07 02:31 49.07394 -91.96295 14708 ft 302 kts 114°
2026-05-07 02:31 49.06515 -91.93391 14606 ft 302 kts 114°
2026-05-07 02:31 49.05637 -91.90491 14497 ft 301 kts 114°
2026-05-07 02:31 49.04760 -91.87599 14395 ft 301 kts 114°
2026-05-07 02:32 49.03885 -91.84717 14292 ft 300 kts 114°
2026-05-07 02:32 49.03010 -91.81839 14184 ft 300 kts 114°
2026-05-07 02:32 49.02136 -91.78964 14085 ft 299 kts 114°
2026-05-07 02:32 49.01262 -91.76098 13980 ft 299 kts 114°
2026-05-07 02:33 49.00391 -91.73240 13873 ft 298 kts 114°
2026-05-07 02:33 48.99517 -91.70381 13769 ft 298 kts 114°
2026-05-07 02:33 48.98644 -91.67523 13666 ft 298 kts 114°
2026-05-07 02:33 48.97773 -91.64679 13564 ft 297 kts 114°
2026-05-07 02:34 48.96901 -91.61832 13462 ft 297 kts 114°
2026-05-07 02:34 48.96030 -91.58993 13358 ft 297 kts 114°
2026-05-07 02:34 48.95158 -91.56155 13256 ft 296 kts 115°
2026-05-07 02:34 48.94289 -91.53328 13148 ft 296 kts 114°
2026-05-07 02:35 48.93419 -91.50502 13046 ft 295 kts 114°
2026-05-07 02:35 48.92549 -91.47678 12946 ft 295 kts 114°
2026-05-07 02:35 48.91680 -91.44862 12844 ft 294 kts 114°
2026-05-07 02:35 48.90801 -91.42022 12753 ft 302 kts 114°
2026-05-07 02:36 48.89903 -91.39124 12639 ft 305 kts 115°
2026-05-07 02:36 48.89009 -91.36240 12531 ft 304 kts 114°
2026-05-07 02:36 48.88122 -91.33378 12427 ft 303 kts 115°
2026-05-07 02:36 48.87237 -91.30521 12322 ft 302 kts 115°
2026-05-07 02:37 48.86338 -91.27631 12222 ft 304 kts 115°
2026-05-07 02:37 48.85436 -91.24731 12118 ft 306 kts 115°
2026-05-07 02:37 48.84525 -91.21807 12010 ft 307 kts 115°
2026-05-07 02:37 48.83610 -91.18873 11900 ft 308 kts 115°
2026-05-07 02:38 48.82690 -91.15927 11789 ft 309 kts 115°
2026-05-07 02:38 48.81769 -91.12980 11684 ft 310 kts 115°
2026-05-07 02:38 48.80847 -91.10034 11572 ft 308 kts 115°
2026-05-07 02:38 48.79936 -91.07121 11467 ft 304 kts 115°
2026-05-07 02:39 48.79034 -91.04244 11362 ft 301 kts 115°
2026-05-07 02:39 48.78140 -91.01392 11257 ft 299 kts 115°
2026-05-07 02:39 48.77249 -90.98557 11153 ft 297 kts 115°
2026-05-07 02:39 48.76365 -90.95746 11052 ft 295 kts 115°
2026-05-07 02:40 48.75486 -90.92957 10948 ft 293 kts 115°
2026-05-07 02:40 48.74613 -90.90187 10847 ft 291 kts 115°
2026-05-07 02:40 48.73741 -90.87425 10749 ft 290 kts 115°
2026-05-07 02:40 48.72873 -90.84678 10642 ft 289 kts 115°
2026-05-07 02:41 48.72009 -90.81948 10545 ft 288 kts 115°
2026-05-07 02:41 48.71146 -90.79225 10448 ft 287 kts 115°
2026-05-07 02:41 48.70281 -90.76497 10348 ft 286 kts 115°
2026-05-07 02:41 48.69419 -90.73783 10250 ft 286 kts 115°
2026-05-07 02:42 48.68560 -90.71079 10150 ft 285 kts 115°
2026-05-07 02:42 48.67701 -90.68381 10048 ft 284 kts 115°
2026-05-07 02:42 48.66846 -90.65693 9949 ft 284 kts 115°
2026-05-07 02:42 48.65991 -90.63014 9853 ft 283 kts 115°
2026-05-07 02:43 48.65138 -90.60342 9751 ft 282 kts 115°
2026-05-07 02:43 48.64287 -90.57678 9654 ft 281 kts 115°
2026-05-07 02:43 48.63436 -90.55017 9559 ft 281 kts 115°
2026-05-07 02:43 48.62587 -90.52364 9461 ft 280 kts 115°
2026-05-07 02:44 48.61740 -90.49724 9363 ft 280 kts 115°
2026-05-07 02:44 48.60894 -90.47085 9264 ft 279 kts 115°
2026-05-07 02:44 48.60049 -90.44456 9167 ft 278 kts 115°
2026-05-07 02:44 48.59208 -90.41840 9075 ft 277 kts 115°
2026-05-07 02:45 48.58368 -90.39230 8982 ft 276 kts 115°
2026-05-07 02:45 48.57531 -90.36632 8892 ft 275 kts 115°
2026-05-07 02:45 48.56692 -90.34029 8794 ft 274 kts 116°
2026-05-07 02:45 48.55860 -90.31450 8702 ft 273 kts 116°
2026-05-07 02:46 48.55031 -90.28886 8610 ft 272 kts 116°
2026-05-07 02:46 48.54205 -90.26332 8515 ft 271 kts 116°
2026-05-07 02:46 48.53377 -90.23778 8423 ft 270 kts 116°
2026-05-07 02:46 48.52554 -90.21238 8330 ft 270 kts 116°
2026-05-07 02:47 48.51731 -90.18703 8238 ft 269 kts 115°
2026-05-07 02:47 48.50911 -90.16179 8147 ft 268 kts 115°
2026-05-07 02:47 48.50093 -90.13662 8055 ft 267 kts 116°
2026-05-07 02:47 48.49279 -90.11163 7962 ft 266 kts 116°
2026-05-07 02:48 48.48468 -90.08674 7871 ft 265 kts 116°
2026-05-07 02:48 48.47659 -90.06194 7777 ft 263 kts 116°
2026-05-07 02:48 48.46947 -90.03665 7662 ft 261 kts 102°
2026-05-07 02:48 48.46831 -90.00975 7599 ft 257 kts 88°
2026-05-07 02:49 48.46866 -89.98254 7507 ft 256 kts 87°
2026-05-07 02:49 48.46903 -89.95576 7417 ft 256 kts 87°
2026-05-07 02:49 48.46940 -89.92897 7328 ft 256 kts 87°
2026-05-07 02:49 48.46974 -89.90223 7235 ft 256 kts 87°
2026-05-07 02:50 48.47005 -89.87547 7146 ft 256 kts 87°
2026-05-07 02:50 48.47035 -89.84871 7060 ft 256 kts 87°
2026-05-07 02:50 48.47064 -89.82190 6969 ft 256 kts 87°
2026-05-07 02:50 48.47091 -89.79517 6877 ft 255 kts 87°
2026-05-07 02:51 48.47117 -89.76850 6782 ft 255 kts 87°
2026-05-07 02:51 48.47142 -89.74194 6694 ft 253 kts 87°
2026-05-07 02:51 48.47166 -89.71548 6605 ft 252 kts 87°
2026-05-07 02:51 48.47189 -89.68921 6526 ft 251 kts 87°
2026-05-07 02:52 48.47211 -89.66303 6440 ft 249 kts 87°
2026-05-07 02:52 48.47232 -89.63710 6350 ft 247 kts 87°
2026-05-07 02:52 48.47253 -89.61132 6265 ft 246 kts 87°
2026-05-07 02:52 48.47272 -89.58564 6186 ft 245 kts 87°
2026-05-07 02:53 48.47291 -89.56010 6095 ft 243 kts 87°
2026-05-07 02:53 48.47310 -89.53475 6024 ft 242 kts 87°
2026-05-07 02:53 48.47327 -89.50935 5939 ft 242 kts 86°
2026-05-07 02:53 48.47344 -89.48406 5837 ft 242 kts 86°
2026-05-07 02:54 48.47361 -89.45877 5738 ft 242 kts 86°
2026-05-07 02:54 48.47377 -89.43350 5636 ft 242 kts 86°
2026-05-07 02:54 48.47392 -89.40814 5541 ft 242 kts 86°
2026-05-07 02:54 48.47407 -89.38277 5441 ft 243 kts 86°
2026-05-07 02:55 48.47421 -89.35732 5334 ft 244 kts 87°
2026-05-07 02:55 48.47434 -89.33184 5235 ft 243 kts 88°
2026-05-07 02:55 48.47448 -89.30639 5135 ft 243 kts 87°
2026-05-07 02:55 48.47461 -89.28108 5027 ft 238 kts 87°
2026-05-07 02:56 48.47623 -89.25689 4830 ft 227 kts 72°
2026-05-07 02:56 48.48110 -89.23482 4625 ft 221 kts 67°
2026-05-07 02:56 48.48635 -89.21271 4412 ft 227 kts 67°
2026-05-07 02:56 48.49175 -89.19001 4181 ft 232 kts 67°
2026-05-07 02:57 48.49711 -89.16744 3939 ft 225 kts 67°
2026-05-07 02:57 48.50222 -89.14567 3694 ft 218 kts 68°
2026-05-07 02:57 48.50312 -89.12367 3472 ft 211 kts 108°
2026-05-07 02:57 48.49389 -89.10734 3422 ft 207 kts 152°
2026-05-07 02:58 48.48071 -89.09845 3407 ft 210 kts 159°
2026-05-07 02:58 48.46710 -89.09036 3386 ft 210 kts 160°
2026-05-07 02:58 48.45348 -89.08260 3371 ft 209 kts 162°
2026-05-07 02:58 48.43932 -89.08016 3158 ft 201 kts 200°
2026-05-07 02:59 48.42895 -89.09256 3083 ft 191 kts 244°
2026-05-07 02:59 48.42362 -89.11091 2938 ft 193 kts 252°
2026-05-07 02:59 48.41882 -89.12990 2754 ft 193 kts 252°
2026-05-07 02:59 48.41429 -89.14808 2560 ft 178 kts 253°
2026-05-07 03:00 48.41014 -89.16497 2391 ft 167 kts 253°
2026-05-07 03:00 48.40635 -89.18047 2239 ft 150 kts 254°
2026-05-07 03:00 48.40289 -89.19512 2105 ft 148 kts 255°
2026-05-07 03:00 48.39950 -89.20973 1967 ft 147 kts 254°
2026-05-07 03:01 48.39611 -89.22420 1776 ft 147 kts 254°
2026-05-07 03:01 48.39268 -89.23890 1584 ft 152 kts 254°
2026-05-07 03:01 48.38918 -89.25382 1362 ft 149 kts 253°
2026-05-07 03:01 48.38576 -89.26818 1150 ft 144 kts 252°
2026-05-07 03:02 48.38226 -89.28224 969 ft 144 kts 252°
2026-05-07 03:02 48.37895 -89.29624 779 ft 140 kts 252°
2026-05-07 03:02 48.37583 -89.30951 633 ft 126 kts 253°
2026-05-07 03:02 48.37342 -89.31994 635 ft 81 kts 250°
2026-05-07 03:03 48.37221 -89.32490 642 ft 26 kts 250°
2026-05-07 03:03 48.37150 -89.32556 644 ft 11 kts 135°
2026-05-07 03:03 48.37113 -89.32456 642 ft 11 kts 119°
2026-05-07 03:03 48.37094 -89.32345 641 ft 16 kts 78°
2026-05-07 03:04 48.37136 -89.32144 638 ft 20 kts 70°
2026-05-07 03:04 48.37181 -89.31955 635 ft 18 kts 69°
2026-05-07 03:04 48.37221 -89.31787 634 ft 16 kts 71°
2026-05-07 03:04 48.37256 -89.31639 634 ft 14 kts 71°
2026-05-07 03:05 48.37286 -89.31507 633 ft 12 kts 71°
2026-05-07 03:05 48.37314 -89.31387 632 ft 11 kts 71°
2026-05-07 03:05 48.37282 -89.31340 632 ft 8 kts 210°
2026-05-07 03:05 48.37248 -89.31372 633 ft 2 kts 188°
2026-05-07 03:06 48.37222 -89.31324 633 ft 7 kts 118°
2026-05-07 03:06 48.37211 -89.31295 632 ft 0 kts 119°